Regional Weather Roundup
Issued by NWS Upton, NY

Current Version | Previous Version | Text Only | Print | Product List | Glossary On
Versions: 1 2 3 4 5 6 7 8 9 10 11 12 13 14 15 16 17 18 19 20 21 22 23 24 25 26 27 28 29 30 31 32 33 34 35 36 37 38 39 40 41 42 43 44 45 46 47 48 49
000
ASUS41 KOKX 230205
RWROKX

Regional Weather Roundup
National Weather Service New York NY
1000 PM EDT TUE MAY 22 2018

Note: "FAIR" indicates few or no clouds below 12,000 feet with no
significant weather and/or obstructions to visibility.

NYZ071-072-176-178-NJZ106-104-230300-
New York City Metro Area

CITY           SKY/WX    TMP DP  RH WIND       PRES   REMARKS
Central Park   CLOUDY    58  57  97 CALM      30.03S FOG
Bronx Bot Gard   N/A     55  54  94 CALM      30.02R
Bronx Lehman C   N/A     57  54  88 SE3         N/A
LaGuardia Arpt CLOUDY    57  54  89 NE5       30.00S
Queens College   N/A     57  55  94 NE1         N/A
Kennedy Intl   CLOUDY    57  57 100 E3        30.01S
Breezy Point     N/A     55 N/A N/A E3          N/A
Brooklyn Coll    N/A     57  55  94 SE2         N/A
Staten Island    N/A     57  55  94 S3          N/A
Newark/Liberty CLOUDY    58  56  93 S6        30.00S
Teterboro      CLOUDY    59  57  93 CALM      29.99R FOG
$$

NYZ177-179-078>081-230300-
Long Island New York

CITY           SKY/WX    TMP DP  RH WIND       PRES   REMARKS
Jones Beach      N/A     55 N/A N/A E3          N/A
Wantagh          N/A     57  55  94 E2          N/A
Hempstead        N/A     57  55  94 SE2       30.03S
Matinecock Pt    N/A     55 N/A N/A E2          N/A
Farmingdale    RAIN      57  56  96 E5        30.00S
MacArthur/ISP  CLOUDY    57  56  96 SE5       30.00S
Stony Brook      N/A     57  55  94 S1          N/A
Shirley        CLOUDY    56  56 100 CALM      30.00S
Mt Sinai Harb    N/A    N/A N/A N/A MISG        N/A
Westhampton    CLOUDY    55  53  93 CALM      30.01F
East Hampton   CLOUDY    53  53  97 CALM      30.00S
Southold         N/A     55  55 100 SE1         N/A
Montauk          N/A     54  54 100 CALM      30.02F
$$

NYZ052-065-067-230300-
Hudson Valley

CITY           SKY/WX    TMP DP  RH WIND       PRES   REMARKS
White Plains   CLOUDY    54  53  97 CALM      30.00R
Larchmont Harb   N/A     54 N/A N/A NE3         N/A
Croton On Huds   N/A     57 N/A N/A S1          N/A
Somers           N/A     54  54 100 S3          N/A
Brewster         N/A     54  54 100 NW1         N/A
Newburgh       CLOUDY    57  55  94 CALM      29.99S
Montgomery     CLOUDY    58  54  86 S5        29.98S
Otisville        N/A     55  55 100 SW2         N/A
Warwick          N/A     57  57 100 W2          N/A
Suffern          N/A     55  55 100 SW1         N/A
Poughkeepsie   CLOUDY    57  53  86 S5        29.98R
Albany         CLOUDY    58  50  75 S13G20    29.94R
$$

NJZ001-105-106-008-010-013-015-019>022-104-230300-
New Jersey

CITY           SKY/WX    TMP DP  RH WIND       PRES   REMARKS
Newark/Liberty CLOUDY    58  56  93 S6        30.00S
Teterboro      CLOUDY    59  57  93 CALM      29.99R FOG
Caldwell       CLOUDY    57  56  96 CALM      30.01R
Somerville     CLOUDY    58  58 100 CALM      29.99R FOG
Linden         CLOUDY    58  56  91 CALM      30.01R
Perth Amboy      N/A     57 N/A N/A E5          N/A
Sussex         CLOUDY    57  56  96 CALM      30.00R FOG
Andover          N/A     57  57 100 CALM      30.00S
Trenton        CLOUDY    60  58  92 NE5       29.99S FOG
Millville      MOCLDY    64  63  96 CALM      29.99R
Atlantic City  CLOUDY    63  62  97 CALM      29.99S
Wrightstown    CLOUDY    59  59  99 E3        29.97  FOG
Toms River     MOCLDY    59  58  96 CALM      30.00S
Belmar         CLOUDY    57  57 100 NE3       30.01R
$$

PAZ047>061-062-071-230300-
Eastern Pennsylvania

CITY           SKY/WX    TMP DP  RH WIND       PRES   REMARKS
Philadelphia   MOCLDY    62  60  93 NE6       30.00R
Allentown      CLOUDY    60  57  89 E5        29.99S FOG
Scranton       CLOUDY    60  58  92 S5        29.96S
$$

CTZ002-004>006-009-010-012-RIZ004-006-007-MAZ004-011-015-230300-
Southern New England

 In CT

CITY           SKY/WX    TMP DP  RH WIND       PRES   REMARKS
Bradley Intl   CLOUDY    55  54  96 S7        29.99S
Hartford       CLOUDY    56  54  93 S5        29.99F
Danbury        CLOUDY    54  53  97 CALM      30.01S
Wtrbury/Oxford FOG       54  54 100 S5        30.00F VSB 3/4
Norwalk Harbor   N/A     54 N/A N/A NE5         N/A
Bridgeport     CLOUDY    56  54  93 E5        30.00F
Meriden        CLOUDY    55  53  93 S5        30.00S
New Haven      CLOUDY    56  53  90 E5        29.99F
Chester        CLOUDY    54  54 100 SE5       30.01S
Groton         CLOUDY    54  53  97 E5        30.00F
Willimantic    CLOUDY    55  53  93 S6        30.01F

 In RI

CITY           SKY/WX    TMP DP  RH WIND       PRES   REMARKS
Providence     CLOUDY    54  52  93 S7        30.02F
Block Island   CLOUDY    53  52  96 SE5       30.02F
Westerly       CLOUDY    55  54  96 SE5       30.01F

In MA

CITY           SKY/WX    TMP DP  RH WIND       PRES   REMARKS
Boston         CLOUDY    55  48  77 S9        30.00F
Worcester      CLOUDY    51  48  89 S10       29.98F
Westfield      CLOUDY    54  54 100 S7        29.97F
Provincetown   LGT RAIN  54  48  80 SW8       30.03R
Nantucket      LGT RAIN  52  52 100 S9        30.02F
$$

ANZ330-335-338-340-345-350-353-355-230300-
Coastal Marine Observations


STATION/POSITION TIME  SKY/WX   TEMP    WIND        PRES    VSBY  WAVE
                                AIR SEA DIR/SP/G                  HT/PER
                 (UTC)          (F)     (DEG/KT/KT) (MB)    (MI)  (FT/S)
NY Harb Entrance 0150            56 56   80/  6/  6 1015.8          2/ 9
20 S Fire Island 0150            55 53   80/  6/  6 1015.7          2/ 8
23 SSW Montauk P 0150            54 53  100/  6/  8 1016.0          2/ 8
15 E Barnegat Li 0130               58                N/A           2/ 8
Hudson Canyon    0150            57 53  200/  6/  6 1015.1          3/ 9
Kings Point      0148            56 56   20/  2/  2 1017.0
Execution Rocks  NOT AVBL
Western LI Sound NOT AVBL
Central LI Sound NOT AVBL
Robbins Reef     0148            58     160/  4/  5 1016.5
$$


>>>>>>>>>>>>>>>>>>>>>>>>>>>> KEY <<<<<<<<<<<<<<<<<<<<<<<<<<<
>                                                          <
>     SKY/WX - Sky Condition/Present Weather               <
>     TMP    - Temperature in Fahrenheit                   <
>     DP     - Dew Point in Fahrenheit                     <
>     RH     - Relative Humidity in Percent                <
>     WIND   - Direction (from) and Speed in MPH           <
>     PRES   - Mean Sea Level Pressure (inches of Hg)      <
>     WCI    - Wind Chill Index                            <
>     VSB    - Visibility in Miles                         <
>     HX     - Heat Index                                  <
>     TC     - Temperature in Celsius                      <
>     VRB    - Varibale Wind Direction                     <
>                                                          <
>>>>>>>>>>>>>>>>>>>>>>>>>>>> KEY <<<<<<<<<<<<<<<<<<<<<<<<<<<



USA.gov is the U.S. government's official web portal to all federal, state and local government web resources and services.